Regional Weather Roundup
Issued by NWS Raleigh/Durham, NC

Home | Current Version | Previous Version | Text Only | Print | Product List | Glossary On
Versions: 1 2 3 4 5 6 7 8 9 10 11 12 13 14 15 16 17 18 19 20 21 22 23 24 25 26 27 28 29 30 31 32 33 34 35 36 37 38 39 40 41 42 43 44 45 46 47 48 49 50
472
ASUS42 KRAH 220710
RWRRAH
NORTH CAROLINA WEATHER ROUNDUP
NATIONAL WEATHER SERVICE RALEIGH NC
300 AM EDT SUN APR 22 2018

NOTE: "FAIR" INDICATES FEW OR NO CLOUDS BELOW 12,000 FEET WITH NO
SIGNIFICANT WEATHER AND/OR OBSTRUCTIONS TO VISIBILITY.

NCZ001-053-055-056-065-067-220800-
WESTERN NORTH CAROLINA

CITY           SKY/WX    TMP DP  RH WIND       PRES   REMARKS
ASHEVILLE      FAIR      42  37  82 CALM      30.32S
JEFFERSON      FAIR      45  31  58 CALM      30.30F
MORGANTON      FAIR      40  39  95 CALM      30.34F
HICKORY        FAIR      47  37  68 CALM      30.31F
RUTHERFORDTON  FAIR      44  40  86 CALM      30.32S
MOUNT AIRY     FAIR      46  38  74 CALM      30.33F
BOONE          FAIR      37  31  81 CALM      30.32F
$$

NCZ021-022-025-041-071-084-088-220800-
CENTRAL NORTH CAROLINA

CITY           SKY/WX    TMP DP  RH WIND       PRES   REMARKS
CHARLOTTE      FAIR      51  43  74 SE5       30.32F
GREENSBORO     FAIR      51  38  60 S8        30.32S
WINSTON-SALEM  FAIR      51  37  58 S5        30.32F
RALEIGH-DURHAM FAIR      51  40  65 S5        30.36F
FORT BRAGG     FAIR      45  38  76 CALM      30.34F
FAYETTEVILLE   FAIR      46  37  71 CALM      30.34F
BURLINGTON     FAIR      48  40  73 CALM      30.33F
LAURINBURG     FAIR      46  42  86 CALM      30.35F
$$

NCZ011-015-027-028-043-044-047-080-103-220800-
NORTHEASTERN NORTH CAROLINA

CITY           SKY/WX    TMP DP  RH WIND       PRES   REMARKS
ROCKY MT-WILSO FAIR      45  41  86 CALM      30.38F
GREENVILLE     FAIR      46  43  87 CALM      30.38S
ELIZABETH CITY FAIR      44  39  82 S5        30.39F
MANTEO         FAIR      40  37  88 CALM      30.40S
CAPE HATTERAS  FAIR      49  40  71 NE5       30.39F
$$

NCZ078-087-090-091-093-098-101-220800-
SOUTHEASTERN NORTH CAROLINA

CITY           SKY/WX    TMP DP  RH WIND       PRES   REMARKS
LUMBERTON      FAIR      46  42  86 CALM      30.34F
GOLDSBORO      FAIR      46  39  78 E5        30.35F
KINSTON        FAIR      44  40  88 CALM      30.38S
KENANSVILLE    FAIR      39  37  93 CALM      30.36F
NEW BERN       FAIR      45  44  97 CALM      30.38F
CHERRY POINT   NOT AVBL
BEAUFORT       FAIR      46  44  93 E3        30.36F
JACKSONVILLE   FAIR      48  44  86 CALM      30.36F
WILMINGTON     FAIR      46  42  86 NE6       30.34F
$$





USA.gov is the U.S. government's official web portal to all federal, state and local government web resources and services.